Location: Unspecified
(50.1700°N, 6.8600°E)
Time: 04:38:55
(UTC+00:00)

Cosmos 1408 Rocket - Pass Details

Date: 24 January 2019
Orbit: 600 x 632 km, 82.6° (Epoch: 18 October)

Event Time Altitude Azimuth Distance (km) Brightness Sun altitude
Rises 05:44:39 0° 350° (N) 2,939 6.8 -14.7°
Reaches altitude 10° 05:46:54 10° 351° (N) 2,024 6.0 -14.3°
Maximum altitude 05:51:25 83° 81° (E) 641 3.7 -13.6°
Drops below altitude 10° 05:55:51 10° 168° (SSE) 1,994 6.5 -12.9°
Sets 05:58:03 0° 170° (S) 2,890 7.4 -12.6°
